Theta_e
292 292 292 292 291 291 291 291 291 290 290 290 290 289 289 288 287 286 284 283 282 281 281 280 279 279 277 275 274 274 273 273 273 272 272 271 271 271 270 270 270 269
293 292 292 292 292 292 291 291 291 291 290 290 290 289 288 287 287 285 284 283 282 281 280 280 279 279 277 275 274 273 273 273 272 272 271 271 270 270 270 270 270 269
293 293 293 292 292 292 292 291 291 291 290 290 290 289 288 287 286 285 284 283 282 281 280 280 279 278 277 275 274 273 273 272 272 272 271 271 270 270 270 269 269 268
294 293 293 293 293 292 292 291 291 291 291 290 290 289 288 287 286 285 284 283 282 281 280 279 279 278 277 275 274 273 272 272 272 271 270 270 270 270 269 269 269 268
294 294 293 293 293 292 292 292 291 291 291 290 290 289 288 287 286 284 283 282 282 280 280 279 279 278 277 275 273 273 272 272 271 271 270 270 269 269 269 269 269 268
294 294 294 293 293 292 292 292 292 291 291 290 289 288 287 286 285 284 283 282 281 280 279 279 278 278 276 274 273 272 272 272 271 270 270 270 269 268 268 268 268 268
294 294 293 293 293 292 292 291 291 291 290 289 288 288 287 285 284 283 283 282 281 280 279 278 278 277 276 274 273 272 272 271 271 270 269 269 269 268 268 268 268 268
294 293 293 292 292 291 291 291 290 290 289 289 288 287 286 285 283 283 282 281 280 279 278 278 278 277 275 274 273 272 272 271 270 270 269 269 268 268 268 267 267 267
293 292 292 291 291 290 290 290 290 289 288 288 287 286 285 284 283 282 282 280 279 279 278 278 277 276 275 273 272 272 271 271 270 269 269 269 268 268 268 267 267 266
292 292 292 291 291 290 290 289 289 288 288 288 287 286 285 284 282 282 281 280 279 278 278 277 277 275 274 273 272 271 271 270 270 269 269 268 268 268 267 267 267 266
292 292 291 291 291 290 290 289 289 288 288 288 287 285 284 283 282 281 280 279 279 278 277 277 276 275 273 272 272 271 270 270 269 269 269 268 268 268 267 267 267 266
291 291 291 291 290 290 289 289 288 288 288 287 286 285 284 283 282 281 280 279 278 278 277 277 275 273 272 272 271 271 270 270 269 269 269 268 268 268 267 267 267 266
291 291 290 290 290 289 289 288 288 288 288 287 286 284 283 282 281 280 280 279 278 277 277 276 274 273 272 271 271 270 270 269 269 269 268 268 268 267 267 267 267 266
291 290 290 289 289 289 288 288 288 288 287 286 285 284 283 282 281 280 279 278 277 277 276 275 273 272 272 271 271 270 270 269 269 268 268 267 267 267 267 267 267 266
290 290 289 289 289 289 289 288 288 287 286 285 284 283 282 281 280 279 278 277 277 276 275 274 273 272 272 271 270 270 269 269 268 268 267 267 267 267 267 267 267 266
290 290 289 289 289 289 288 287 286 285 284 283 283 282 281 280 279 278 277 277 276 275 274 273 272 272 271 270 270 269 269 268 268 268 267 267 267 267 267 267 267 267
289 289 289 288 287 287 286 285 285 284 283 283 282 281 280 279 278 277 277 276 276 274 273 272 272 271 271 270 269 268 268 268 268 268 267 267 268 268 268 267 267 267
288 288 287 287 286 285 285 284 283 283 282 282 281 280 279 278 277 277 276 276 274 273 272 272 271 271 270 269 269 268 268 267 267 267 267 267 267 267 267 267 266 266
287 287 286 286 285 285 284 283 283 282 282 281 280 279 278 277 277 276 276 274 273 272 272 271 271 270 270 269 268 268 267 267 266 266 266 266 267 267 267 266 266 266
286 286 285 285 284 283 283 282 282 281 280 279 278 277 277 277 276 275 274 273 272 271 271 270 270 270 269 268 268 267 267 266 266 266 266 266 266 266 266 266 266 266
286 285 284 284 283 282 282 281 281 280 279 278 277 277 276 276 275 274 273 272 271 271 270 270 270 269 269 268 268 267 267 266 266 266 266 266 266 266 266 266 265 265
284 284 283 283 282 281 281 280 279 278 278 277 276 276 275 274 273 272 272 271 271 270 270 269 269 269 268 268 267 267 267 266 266 266 266 266 266 266 266 266 266 265
283 282 282 281 281 280 280 279 278 277 277 276 275 275 274 273 272 272 271 270 270 270 269 269 269 269 268 268 267 267 267 266 266 266 266 266 266 266 266 266 266 266
281 281 280 280 280 279 278 278 277 276 276 275 274 273 272 272 271 271 270 270 270 270 269 269 269 269 268 267 267 267 267 266 266 266 266 266 266 266 266 265 265 266
280 279 279 279 278 278 277 276 276 275 274 273 273 272 272 271 271 270 270 270 270 269 269 269 269 269 268 267 267 267 267 266 266 265 266 266 266 266 266 265 265 265
279 278 278 277 277 276 276 275 274 273 273 272 272 272 271 270 270 270 269 269 269 269 269 268 268 268 268 267 267 267 267 266 266 265 266 266 266 266 265 264 264 265
Wind_Speed
56 56 56 55 55 55 53 53 52 51 50 48 47 46 44 42 39 37 35 34 32 31 29 28 28 28 28 28 28 28 27 26 26 26 26 26 26 26 26 26 26 25
56 56 56 56 56 55 54 53 53 52 51 50 49 47 45 43 41 38 37 35 33 31 30 29 28 28 29 29 29 29 28 27 27 26 27 27 26 27 27 27 27 26
57 57 57 56 55 54 53 53 53 53 52 52 51 49 47 45 42 40 38 35 34 32 31 29 29 29 29 30 30 29 29 28 27 27 27 28 27 27 27 27 27 27
59 59 58 57 55 55 54 55 55 54 53 52 51 49 48 46 44 41 39 36 34 33 32 30 29 29 30 31 30 30 29 29 28 27 28 29 28 29 28 28 28 28
61 60 59 58 57 56 56 56 56 55 54 53 52 50 49 47 44 42 39 37 35 33 32 31 30 30 31 32 32 31 30 30 29 29 29 29 29 29 29 29 30 30
60 61 61 60 59 58 58 58 57 56 55 53 52 51 49 46 44 42 40 37 35 33 32 31 31 31 32 33 32 32 31 31 30 30 30 30 30 30 30 31 31 31
55 58 60 60 60 60 59 58 57 56 55 53 52 50 48 46 44 42 40 38 35 34 32 31 31 32 33 33 33 33 32 32 31 30 31 31 30 30 30 31 32 33
50 54 57 59 59 59 59 58 57 56 53 51 50 48 47 45 43 42 40 37 35 34 33 32 32 32 34 34 34 33 32 32 32 32 32 31 31 32 31 32 33 34
48 50 53 55 57 57 57 56 55 53 51 49 48 47 45 43 42 42 40 37 35 34 33 32 32 33 34 35 34 33 33 32 32 33 33 32 32 32 32 32 33 34
45 48 50 52 53 54 54 52 50 49 48 46 45 44 43 41 41 41 39 36 35 34 33 33 33 35 35 35 34 33 33 33 33 33 34 34 33 33 33 33 33 34
43 45 47 48 49 50 49 48 46 46 45 44 43 42 40 40 41 40 38 37 36 34 33 33 34 36 36 35 34 34 34 34 34 34 34 34 34 34 33 34 34 35
41 41 43 44 45 46 45 44 43 42 42 41 40 39 39 39 40 39 38 36 35 34 33 34 35 36 35 34 34 34 34 34 34 35 35 35 34 34 34 35 35 36
38 39 39 40 41 41 41 40 40 39 39 39 38 37 37 38 38 38 37 35 34 34 34 35 36 36 35 34 34 34 34 35 35 35 35 35 35 35 35 35 36 36
36 36 36 36 36 37 37 37 37 37 37 36 35 35 36 36 37 36 36 35 34 34 35 36 36 36 35 34 34 34 34 35 35 35 35 35 35 35 35 36 36 36
34 33 32 32 32 33 34 34 35 35 35 34 33 33 34 35 35 35 35 34 34 34 35 36 37 36 35 34 34 34 34 34 34 34 34 35 34 35 35 36 37 36
31 29 28 28 29 31 32 33 34 33 33 32 32 32 33 33 34 34 34 34 34 35 36 37 36 35 33 32 32 33 33 33 34 33 33 34 34 34 35 36 36 35
28 26 26 27 28 29 31 32 32 31 31 30 31 31 32 33 34 34 34 34 35 36 36 36 35 33 31 31 31 32 32 33 33 33 33 33 33 34 35 36 36 36
25 25 26 27 28 30 31 31 30 29 29 29 30 31 32 33 33 33 34 35 36 36 36 35 34 31 30 30 31 30 30 30 31 32 33 33 34 36 37 37 37 38
24 25 26 28 29 30 30 29 28 28 29 29 30 30 31 32 32 33 35 36 36 35 35 34 32 29 29 30 30 29 28 27 28 29 30 31 32 35 38 39 38 39
24 26 27 28 29 29 28 28 28 28 28 28 29 30 31 32 33 34 35 35 34 33 33 32 30 28 28 29 29 28 27 26 27 29 31 32 33 35 38 40 40 40
25 26 27 27 27 27 27 27 27 27 27 28 29 30 31 32 34 35 34 33 32 31 31 31 29 27 27 28 27 27 26 26 27 29 31 34 35 36 38 39 39 38
25 25 25 26 26 26 26 27 27 27 27 28 29 30 31 33 34 34 32 31 30 30 30 30 28 26 27 27 27 26 25 25 27 29 32 34 36 37 38 39 39 39
24 23 24 24 25 26 26 26 26 26 27 28 29 30 31 32 32 31 30 29 29 29 29 30 28 26 26 27 26 25 25 26 28 31 33 36 37 37 38 39 40 40
21 22 23 24 25 25 25 25 25 26 27 28 29 30 31 30 30 29 29 29 29 28 28 29 29 27 26 26 25 24 24 26 28 31 33 35 36 36 37 37 38 39
21 21 22 23 23 23 23 24 25 26 27 28 28 29 29 29 29 29 29 29 28 28 28 29 30 28 26 25 25 24 24 26 28 30 33 35 35 36 37 37 38 39
21 21 21 21 22 22 23 24 25 26 27 27 28 28 28 28 28 29 29 28 28 28 28 29 30 29 26 24 24 24 24 25 28 30 33 34 34 36 36 35 36 37
Wind_Direction
253 254 255 256 257 258 259 259 260 261 261 262 263 263 264 264 265 265 266 268 271 274 278 282 287 292 295 293 289 286 284 285 286 287 287 286 287 287 287 288 288 286
253 254 255 255 256 257 258 259 259 260 261 262 262 262 262 262 262 262 264 266 268 272 275 279 284 290 293 292 288 284 282 282 283 284 284 283 284 284 284 286 286 285
254 254 254 255 256 257 258 259 259 259 260 261 261 261 260 260 260 260 261 263 266 269 273 277 283 287 291 290 286 281 280 281 282 282 282 282 282 282 282 283 283 282
256 255 255 256 257 257 258 258 258 259 259 260 261 260 258 258 257 257 258 261 263 267 271 276 281 286 289 289 284 279 278 279 279 279 279 279 280 280 280 280 279 279
257 257 257 256 256 256 256 257 257 258 259 259 260 259 257 256 255 255 256 259 262 266 270 275 280 284 287 287 283 278 277 277 277 277 277 277 278 278 278 279 278 278
261 259 258 257 257 256 256 257 258 258 258 259 258 257 256 255 253 253 255 258 261 264 268 273 278 282 285 284 280 275 275 275 275 275 275 276 276 275 275 277 278 278
266 263 261 259 258 257 257 257 257 257 258 258 257 257 256 254 251 252 254 256 259 263 267 271 276 281 283 281 276 273 273 273 273 273 273 274 275 273 272 274 275 277
270 267 264 261 259 258 258 257 258 258 258 258 257 257 255 252 250 250 252 254 258 262 266 271 275 279 281 279 274 271 271 271 272 272 272 273 273 272 272 272 273 275
272 269 267 264 261 260 259 259 259 259 259 258 257 256 253 250 248 249 251 253 257 261 265 270 275 279 280 277 272 271 270 269 270 271 272 273 272 272 272 271 270 272
273 271 269 266 263 262 261 261 261 260 259 258 256 254 252 249 247 247 249 252 256 261 266 271 276 280 279 274 271 270 269 269 270 270 271 273 273 273 271 270 269 269
274 272 270 268 266 264 263 262 261 260 259 258 255 253 250 247 245 246 248 252 257 262 267 273 277 278 276 272 270 269 268 269 270 271 272 273 274 273 272 271 270 270
274 272 271 269 267 265 264 262 261 259 258 257 254 251 248 245 244 245 248 253 258 263 268 273 276 275 272 270 269 268 268 269 270 272 273 274 274 274 274 272 271 272
275 273 271 269 267 265 263 261 259 258 257 255 253 249 246 244 243 245 250 255 259 264 270 273 274 273 270 269 268 267 268 269 271 273 274 275 275 275 275 274 273 272
275 273 270 268 266 263 261 259 258 256 255 253 251 247 244 243 244 247 252 256 260 266 271 273 273 271 269 269 268 267 268 270 271 272 273 274 275 276 276 275 274 273
274 272 268 265 262 260 258 257 256 254 253 251 248 244 242 242 244 248 253 257 263 268 272 273 272 270 269 268 268 268 269 270 271 272 274 275 275 276 276 275 274 274
273 270 265 261 259 258 257 256 255 253 251 248 245 242 240 242 246 250 255 260 266 270 272 272 270 269 268 268 267 268 270 271 272 273 274 275 275 276 276 275 274 274
270 266 262 260 259 259 258 257 255 253 249 245 242 240 241 244 248 253 259 265 269 271 271 270 268 268 269 268 267 268 271 274 277 278 278 277 277 278 277 277 277 277
266 263 263 264 263 262 261 258 255 250 246 243 241 242 244 247 252 258 263 268 270 270 269 267 267 268 268 268 268 269 271 274 277 278 279 281 281 281 281 280 280 281
265 266 267 267 266 264 260 256 251 247 244 242 243 245 247 251 257 262 266 269 269 268 267 266 267 268 268 268 269 271 273 272 269 267 268 270 273 275 278 279 278 279
268 270 270 268 265 261 257 251 248 245 243 244 245 247 251 256 262 266 268 269 267 266 265 266 267 269 268 268 269 272 273 270 265 263 262 263 264 265 268 272 275 276
274 273 271 268 263 258 252 248 245 243 244 245 248 252 257 262 266 267 267 266 265 265 266 267 269 270 270 270 271 273 274 270 266 264 263 265 266 265 266 268 270 271
278 276 272 267 261 255 250 246 245 245 246 249 253 258 263 265 267 267 267 266 266 266 267 268 271 272 272 272 273 273 272 269 265 263 263 265 266 267 269 270 268 267
280 276 271 265 259 253 249 247 246 248 250 254 259 263 266 268 268 268 267 267 266 266 268 271 274 274 272 272 272 270 269 266 265 265 266 268 269 271 273 273 273 272
279 274 268 262 256 251 249 248 249 252 256 261 265 268 269 268 268 267 266 266 268 269 271 273 275 274 271 270 269 267 266 265 266 267 269 270 273 275 275 274 275 276
275 270 264 257 252 249 248 250 253 258 263 267 268 269 269 268 267 267 267 269 271 272 273 273 274 274 271 269 268 266 264 264 265 267 269 272 274 276 275 274 275 276
273 267 260 254 250 249 251 255 260 265 268 270 271 270 269 268 268 269 270 272 273 273 273 272 273 274 272 269 268 265 264 264 265 267 271 274 276 277 276 274 275 278